Regional Weather Roundup
Issued by NWS State College, PA

Home | Current Version | Previous Version | Graphics & Text | Print | Product List | Glossary Off
Versions: 1 2 3 4 5 6 7 8 9 10 11 12 13 14 15 16 17 18 19 20 21 22 23 24 25 26 27 28 29 30 31 32 33 34 35 36 37 38 39 40 41 42 43 44 45 46 47 48 49 50

000
ASUS41 KCTP 260703
RWRCTP

REGIONAL WEATHER ROUNDUP
NATIONAL WEATHER SERVICE STATE COLLEGE PA
200 AM EST FRI DEC 26 2014

Note: "fair" indicates few or no clouds below 12,000 feet with no
significant weather and/or obstructions to visibility.

* = STATION THAT DOES NOT REPORT PRECIPITATION /E.G. RAIN...SNOW...ETC/
    THUNDER OR FOG.

PAZ002>004-007>009-013>016-020>023-029>032-260800-
WESTERN PENNSYLVANIA

CITY           SKY/WX    TMP DP  RH WIND       PRES   REMARKS
ERIE           CLOUDY    38  27  64 SW7       30.18R
MEADVILLE      CLOUDY    35  26  69 SW3       30.15S
FRANKLIN*      CLOUDY    36  27  69 W6        30.16S
NEW CASTLE       N/A     37  29  73 CALM      30.19S
BEAVER COUNTY  NOT AVBL
BUTLER*        CLOUDY    36  27  69 SW9       30.19S
PITTSBURGH INT CLOUDY    37  28  70 SW7       30.18F
PITTSBURGH     CLOUDY    37  26  64 S5        30.18S
INDIANA*       CLOUDY    37  28  70 W7        30.21F
LATROBE        CLOUDY    37  30  75 SW6       30.21S
WASHINGTON CO* NOT AVBL
$$

PAZ004>006-010>012-017>019-024>028-033>037-041-042-045-046-049>053-260800-
CENTRAL PENNSYLVANIA

CITY           SKY/WX    TMP DP  RH WIND       PRES   REMARKS
BRADFORD       CLOUDY    33  25  72 W8        30.11S
DUBOIS         CLOUDY    34  27  75 W9        30.13F
CLEARFIELD     CLOUDY    36  27  69 SW13G20   30.16F
JOHNSTOWN      CLOUDY    33  26  75 W10       30.13S
ALTOONA        CLEAR     33  27  78 CALM      30.16F
STATE COLLEGE  MOCLDY    36  27  72 W10       30.16F
WILLIAMSPORT   PTCLDY    37  26  64 W5        30.16S
SELINSGROVE    CLEAR     35  27  72 CALM      30.19R
FT INDIANTOWN  CLEAR     38  27  64 W5        30.18S
CAPITAL CITY   CLEAR     33  27  78 CALM      30.20S
HARRISBURG     CLEAR     31  26  82 CALM      30.19S
YORK           CLEAR     32  25  75 CALM      30.19S
$$

PAZ038>040-043-044-047-048-054-055-060>062-067>071-260800-
EASTERN PENNSYLVANIA

CITY           SKY/WX    TMP DP  RH WIND       PRES   REMARKS
SCRANTON       CLEAR     37  27  67 SW7       30.14R
MOUNT POCONO   CLEAR     33  26  75 W7        30.09R
ALLENTOWN      CLEAR     40  27  59 W9        30.17R
QUAKERTOWN*    NOT AVBL
READING        PTCLDY    36  27  69 NW5       30.19R
LANCASTER      CLEAR     32  26  78 CALM      30.19R
COATESVILLE    SUNNY     37  32  81 NW8       30.20R
POTTSTOWN      CLEAR     32  27  81 CALM      30.20R
BLUE BELL      CLEAR     36  32  87 CALM      30.19R
DOYLESTOWN     CLEAR     36  29  75 W5        30.18R
WILLOW GROVE   NOT AVBL
NORTH PHILA    CLEAR     39  27  62 SW5       30.21R
PHILADELPHIA   CLEAR     36  29  75 W9        30.22R
$$



USA.gov is the U.S. government's official web portal to all federal, state and local government web resources and services.